РПИ Дашогуз

Руководитель РПИ

Evgeny Vygornitsky*

Инструкторы РПИ
Evgeny Vygornitsky (Supervisor)
Vitaliy Alekseyev (Instructor)
Входит в состав
ЗЦ Центральная Азия

Диспетчеры РПИ

Диспетчер Рейтинг Допуски *

Аэропорты РПИ

ICAO Город Название Погода
UTAT Дашогуз Дашогуз UTAT 020100Z 06008KT CAVOK 25/03 Q1006 R08/CLRD70 NOSIG